TimeCET,TemperatureF,Dew PointF,Humidity,Sea Level PressureIn,VisibilityMPH,Wind Direction,Wind SpeedMPH,Gust SpeedMPH,PrecipitationIn,Events,Conditions,WindDirDegrees,DateUTC
1:00 AM,50,46,83,29.92,4,South,4.6,,,Rain,Light Rain,180,2013-02-22 00:00:00
6:00 AM,51.8,50.0,94,29.83,6.2,WSW,10.4,-,N/A,Rain,Light Rain,250,2013-02-22 05:00:00
6:30 AM,51.8,50.0,94,29.83,6.2,West,9.2,-,N/A,Rain,Light Rain,260,2013-02-22 05:30:00
7:00 AM,51,46,77,29.86,5,West,10.4,,,Rain,Light Rain,260,2013-02-22 06:00:00
7:00 AM,51.8,50.0,94,29.86,5.6,West,9.2,-,N/A,Rain,Light Rain,260,2013-02-22 06:00:00
7:30 AM,51.8,48.2,88,29.86,5.6,West,13.8,-,N/A,Rain,Light Rain,270,2013-02-22 06:30:00
8:00 AM,50.0,48.2,94,29.86,5.6,West,11.5,-,N/A,,Light Drizzle,270,2013-02-22 07:00:00
8:30 AM,50.0,48.2,94,29.86,5.6,WSW,8.1,-,N/A,,Light Drizzle,250,2013-02-22 07:30:00
9:00 AM,51.8,48.2,88,29.86,5.6,WSW,6.9,-,N/A,,Light Drizzle,240,2013-02-22 08:00:00
9:30 AM,51.8,50.0,94,29.86,5.0,WSW,4.6,-,N/A,Rain,Light Rain,240,2013-02-22 08:30:00
10:00 AM,51.8,50.0,94,29.86,5.0,West,3.5,-,N/A,Rain,Light Rain,260,2013-02-22 09:00:00
10:30 AM,51.8,50.0,94,29.86,3.7,Variable,2.3,-,N/A,Rain,Light Rain,0,2013-02-22 09:30:00
11:00 AM,51.8,50.0,94,29.86,3.7,West,5.8,-,N/A,Rain,Light Rain,260,2013-02-22 10:00:00
11:14 AM,51.8,50.0,94,29.86,3.7,WSW,8.1,-,N/A,Rain,Rain,250,2013-02-22 10:14:00
11:22 AM,51.8,50.0,94,29.86,2.5,WSW,6.9,-,N/A,Rain,Rain,240,2013-02-22 10:22:00
11:30 AM,51.8,50.0,94,29.86,3.1,WSW,8.1,-,N/A,Rain,Rain,240,2013-02-22 10:30:00
11:36 AM,51.8,50.0,94,29.86,5.6,West,8.1,-,N/A,Rain,Light Rain,260,2013-02-22 10:36:00
12:00 PM,51.8,50.0,94,29.86,5.0,WNW,5.8,-,N/A,Rain,Light Rain,290,2013-02-22 11:00:00
12:30 PM,53.6,51.8,94,29.86,5.6,West,8.1,-,N/A,,Mostly Cloudy,270,2013-02-22 11:30:00
1:00 PM,53,47,75,29.84,4,West,6.9,,,Rain,Light Rain,280,2013-02-22 12:00:00
1:00 PM,53.6,50.0,88,29.83,5.0,WNW,5.8,-,N/A,Rain,Light Rain,300,2013-02-22 12:00:00
1:30 PM,53.6,50.0,88,29.83,5.6,West,8.1,-,N/A,,Mostly Cloudy,270,2013-02-22 12:30:00
1:54 PM,51.8,50.0,94,29.80,4.3,West,10.4,-,N/A,Rain,Rain,280,2013-02-22 12:54:00
2:00 PM,51.8,50.0,94,29.80,4.3,West,9.2,-,N/A,Rain,Rain,280,2013-02-22 13:00:00
2:30 PM,51.8,50.0,94,29.80,4.3,West,3.5,-,N/A,Rain,Rain,270,2013-02-22 13:30:00
2:48 PM,51.8,50.0,94,29.77,5.6,Calm,Calm,-,N/A,,Mostly Cloudy,0,2013-02-22 13:48:00
3:00 PM,53.6,50.0,88,29.77,5.6,Calm,Calm,-,N/A,,Mostly Cloudy,0,2013-02-22 14:00:00
4:00 PM,59.0,48.2,67,29.74,6.2,WNW,11.5,-,N/A,,Mostly Cloudy,290,2013-02-22 15:00:00
4:30 PM,57.2,48.2,72,29.71,6.2,WNW,10.4,-,N/A,,Mostly Cloudy,290,2013-02-22 15:30:00
5:00 PM,53.6,48.2,82,29.74,5.0,West,20.7,-,N/A,Rain,Light Rain,280,2013-02-22 16:00:00
5:30 PM,53.6,48.2,82,29.71,5.0,WNW,9.2,-,N/A,,Light Drizzle,290,2013-02-22 16:30:00
6:00 PM,53.6,48.2,82,29.71,5.0,West,8.1,-,N/A,Rain,Light Rain,280,2013-02-22 17:00:00
6:05 PM,51.8,48.2,88,29.71,4.3,WNW,10.4,-,N/A,Rain,Rain,290,2013-02-22 17:05:00
6:30 PM,51.8,48.2,88,29.74,3.7,WNW,13.8,-,N/A,Rain,Heavy Rain,290,2013-02-22 17:30:00
6:33 PM,51.8,48.2,88,29.71,5.0,WSW,9.2,-,N/A,Rain,Light Rain,240,2013-02-22 17:33:00
7:00 PM,51,45,74,29.71,7,WSW,13.8,,,Rain,Light Rain,250,2013-02-22 18:00:00
7:00 PM,51.8,48.2,88,29.71,6.2,West,11.5,-,N/A,,Mostly Cloudy,260,2013-02-22 18:00:00
7:30 PM,51.8,44.6,76,29.71,6.2,West,15.0,26.5,N/A,,Mostly Cloudy,260,2013-02-22 18:30:00
8:00 PM,51.8,46.4,82,29.71,6.2,West,19.6,31.1,N/A,,Mostly Cloudy,260,2013-02-22 19:00:00
8:03 PM,50.0,46.4,87,29.71,4.3,West,16.1,-,N/A,Rain,Rain,270,2013-02-22 19:03:00
8:19 PM,48.2,46.4,93,29.74,4.3,West,18.4,-,N/A,Rain,Light Rain,280,2013-02-22 19:19:00
8:24 PM,48.2,44.6,87,29.74,3.1,West,19.6,-,N/A,Rain,Rain,280,2013-02-22 19:24:00
8:30 PM,48.2,44.6,87,29.74,3.1,West,19.6,-,N/A,Rain,Rain,280,2013-02-22 19:30:00
9:00 PM,46.4,42.8,87,29.74,5.0,West,18.4,-,N/A,Rain,Light Rain,280,2013-02-22 20:00:00
9:30 PM,46.4,44.6,93,29.71,6.2,WSW,6.9,-,N/A,,Mostly Cloudy,250,2013-02-22 20:30:00
10:00 PM,48.2,42.8,82,29.71,6.2,West,13.8,-,N/A,,Mostly Cloudy,270,2013-02-22 21:00:00
10:30 PM,48.2,44.6,87,29.74,5.0,West,13.8,25.3,N/A,Rain,Rain,280,2013-02-22 21:30:00
11:00 PM,48.2,44.6,87,29.74,5.0,WSW,8.1,-,N/A,Rain,Light Rain,250,2013-02-22 22:00:00